XSN02L EDDH-ENBR

Flight info

Callsign XSN02L
Flight time N/A
Altitude 30000
Route ELSOB Y348 OMWEG DCT BADOS DCT GIKOG DCT ATTUS P992 LINVI DCT BADAB
Aircraft B462/M-SDFGIRWY/LB1

Departure

Time 2026-05-06 07:53
Airport Hamburg Helmut Schmidt Airport (EDDH)

Arrival

Time N/A
Airport Bergen Airport, Flesland (ENBR)
Time Latitude Longitude Altitude Speed Heading
2026-05-06 07:53 53.64356 10.01204 1902 ft 151 kts 52°
2026-05-06 07:53 53.65085 10.02625 2572 ft 166 kts 53°
2026-05-06 07:53 53.65844 10.04176 3265 ft 180 kts 53°
2026-05-06 07:54 53.66663 10.05876 3981 ft 193 kts 53°
2026-05-06 07:54 53.67538 10.07695 4702 ft 206 kts 53°
2026-05-06 07:54 53.68465 10.09632 5413 ft 218 kts 52°
2026-05-06 07:54 53.69664 10.11294 6150 ft 234 kts 23°
2026-05-06 07:55 53.71890 10.11186 7112 ft 256 kts 338°
2026-05-06 07:55 53.72895 10.10088 7586 ft 266 kts 319°
2026-05-06 07:55 53.74095 10.07636 8321 ft 276 kts 308°
2026-05-06 07:55 53.75274 10.04997 9087 ft 283 kts 307°
2026-05-06 07:56 53.76419 10.02351 10039 ft 283 kts 305°
2026-05-06 07:56 53.77569 9.99628 10799 ft 287 kts 305°
2026-05-06 07:56 53.78743 9.96873 11539 ft 291 kts 306°
2026-05-06 07:56 53.79948 9.94102 12268 ft 294 kts 307°
2026-05-06 07:57 53.81185 9.91319 12958 ft 297 kts 307°
2026-05-06 07:57 53.82454 9.88521 13623 ft 300 kts 308°
2026-05-06 07:57 53.83734 9.85716 14196 ft 303 kts 308°
2026-05-06 07:57 53.85044 9.82899 14747 ft 306 kts 306°
2026-05-06 07:58 53.86387 9.80073 15264 ft 309 kts 306°
2026-05-06 07:58 53.87741 9.77210 15774 ft 312 kts 306°
2026-05-06 07:58 53.89092 9.74324 16262 ft 314 kts 305°
2026-05-06 07:58 53.90436 9.71440 16734 ft 317 kts 305°
2026-05-06 07:59 53.91808 9.68488 17219 ft 319 kts 305°
2026-05-06 07:59 53.93184 9.65511 17707 ft 321 kts 305°
2026-05-06 07:59 53.94564 9.62509 18127 ft 324 kts 305°
2026-05-06 07:59 53.95957 9.59480 18487 ft 326 kts 305°
2026-05-06 08:00 53.97372 9.56437 18844 ft 327 kts 305°
2026-05-06 08:00 53.98780 9.53389 19182 ft 329 kts 305°
2026-05-06 08:00 54.00299 9.50467 19487 ft 333 kts 317°
2026-05-06 08:00 54.02178 9.48144 19805 ft 336 kts 323°
2026-05-06 08:01 54.04155 9.46001 20112 ft 338 kts 326°
2026-05-06 08:01 54.06184 9.43940 20393 ft 340 kts 327°
2026-05-06 08:01 54.08239 9.41922 20657 ft 342 kts 327°
2026-05-06 08:01 54.10295 9.39944 20947 ft 344 kts 328°
2026-05-06 08:02 54.12410 9.37907 21189 ft 346 kts 327°
2026-05-06 08:02 54.14476 9.35901 21541 ft 344 kts 327°
2026-05-06 08:02 54.16562 9.33873 21823 ft 345 kts 327°
2026-05-06 08:02 54.18654 9.31830 22075 ft 347 kts 326°
2026-05-06 08:03 54.20752 9.29739 22345 ft 349 kts 326°
2026-05-06 08:03 54.22855 9.27636 22594 ft 350 kts 326°
2026-05-06 08:03 54.24966 9.25523 22852 ft 352 kts 326°
2026-05-06 08:03 54.27060 9.23434 23096 ft 354 kts 326°
2026-05-06 08:04 54.29184 9.21316 23343 ft 356 kts 326°
2026-05-06 08:04 54.31337 9.19177 23583 ft 357 kts 326°
2026-05-06 08:04 54.33498 9.17033 23806 ft 359 kts 326°
2026-05-06 08:04 54.35665 9.14883 24022 ft 360 kts 327°
2026-05-06 08:05 54.37919 9.12932 24232 ft 364 kts 332°
2026-05-06 08:05 54.40226 9.11254 24429 ft 366 kts 334°
2026-05-06 08:05 54.42612 9.09646 24650 ft 368 kts 335°
2026-05-06 08:05 54.45017 9.08090 24854 ft 369 kts 335°
2026-05-06 08:06 54.47432 9.06552 25054 ft 371 kts 336°
2026-05-06 08:06 54.49854 9.05006 25251 ft 372 kts 335°
2026-05-06 08:06 54.52280 9.03420 25465 ft 373 kts 335°
2026-05-06 08:06 54.54718 9.01811 25664 ft 375 kts 335°
2026-05-06 08:07 54.57159 9.00190 25853 ft 376 kts 335°
2026-05-06 08:07 54.59606 8.98561 26050 ft 377 kts 335°
2026-05-06 08:07 54.62040 8.96938 26241 ft 379 kts 335°
2026-05-06 08:07 54.64500 8.95293 26428 ft 380 kts 335°
2026-05-06 08:08 54.66977 8.93633 26617 ft 381 kts 335°
2026-05-06 08:08 54.69456 8.91975 26814 ft 383 kts 335°
2026-05-06 08:08 54.71956 8.90330 26998 ft 385 kts 335°
2026-05-06 08:08 54.74474 8.88680 27190 ft 386 kts 335°
2026-05-06 08:09 54.76988 8.87012 27366 ft 387 kts 334°
2026-05-06 08:09 54.79503 8.85303 27543 ft 388 kts 334°
2026-05-06 08:09 54.82025 8.83608 27705 ft 390 kts 335°
2026-05-06 08:09 54.84559 8.81925 27883 ft 391 kts 335°
2026-05-06 08:10 54.87082 8.80235 28047 ft 392 kts 334°
2026-05-06 08:10 54.89629 8.78494 28210 ft 393 kts 334°
2026-05-06 08:10 54.92193 8.76774 28372 ft 395 kts 335°
2026-05-06 08:10 54.94759 8.75062 28534 ft 396 kts 335°
2026-05-06 08:11 54.97338 8.73347 28761 ft 396 kts 333°
2026-05-06 08:11 54.99909 8.71599 28913 ft 397 kts 333°
2026-05-06 08:11 55.02476 8.69830 29065 ft 398 kts 333°
2026-05-06 08:11 55.05033 8.68061 29216 ft 399 kts 333°
2026-05-06 08:12 55.07628 8.66292 29364 ft 401 kts 333°
2026-05-06 08:12 55.10238 8.64543 29516 ft 402 kts 333°
2026-05-06 08:12 55.12849 8.62763 29649 ft 402 kts 333°
2026-05-06 08:12 55.15455 8.60964 29836 ft 402 kts 333°
2026-05-06 08:13 55.20684 8.57386 29945 ft 409 kts 334°
2026-05-06 08:13 55.26039 8.53783 29965 ft 413 kts 333°
2026-05-06 08:14 55.31409 8.50068 29966 ft 415 kts 332°
2026-05-06 08:14 55.36786 8.46373 29962 ft 418 kts 333°
2026-05-06 08:15 55.42268 8.42605 29967 ft 421 kts 332°
2026-05-06 08:15 55.47688 8.38804 29963 ft 423 kts 333°
2026-05-06 08:16 55.53187 8.34991 29993 ft 426 kts 332°
2026-05-06 08:16 55.58712 8.31077 29974 ft 428 kts 332°
2026-05-06 08:17 55.64244 8.27090 29981 ft 430 kts 331°
2026-05-06 08:17 55.69781 8.22956 29974 ft 431 kts 331°
2026-05-06 08:18 55.75291 8.18838 29973 ft 433 kts 331°
2026-05-06 08:18 55.80854 8.14708 29974 ft 434 kts 331°
2026-05-06 08:19 55.86433 8.10521 29981 ft 435 kts 331°
2026-05-06 08:19 55.92027 8.06343 29980 ft 436 kts 331°
2026-05-06 08:20 55.97624 8.02110 29979 ft 437 kts 331°
2026-05-06 08:20 56.03245 7.97888 29980 ft 437 kts 331°
2026-05-06 08:21 56.08855 7.93631 30002 ft 439 kts 330°
2026-05-06 08:21 56.14457 7.89421 29988 ft 439 kts 330°